Location: Arbon
(43.0005°N, 0.7472°E)
Time: 10:45:59
(UTC+00:00)

CZ-4 R/B - Pass Details

Date: 22 April 2026
Orbit: 490 x 536 km, 97.5° (Epoch: 20 May)

Event Time Altitude Azimuth Distance (km) Brightness Sun altitude
Exits shadow 19:19:20 - 144° (SE) 2,204 3.9 -6.3°
Reaches altitude 10° 19:20:32 10° 138° (SE) 1,730 3.3 -6.5°
Maximum altitude 19:23:57 35° 72° (ENE) 833 1.9 -7.0°
Drops below altitude 10° 19:27:20 10° 5° (N) 1,719 4.1 -7.6°
Sets 19:29:31 0° 357° (N) 2,601 5.2 -8.0°
